Regional Weather Roundup
Issued by NWS

Home | Current Version | Previous Version | Graphics & Text | Print | Product List | Glossary On
Versions: 1 2 3 4 5 6 7 8 9 10 11 12 13 14 15 16 17 18 19 20 21 22 23 24 25 26
000
ASUS45 KPSR 270110
RWRAZ

ARIZONA HOURLY REGIONAL WEATHER ROUNDUP
NATIONAL WEATHER SERVICE PHOENIX AZ
600 PM MST THU MAY 26 2016

NOTE: FAIR INDICATES FEW OR NO CLOUDS BELOW 12,000 FEET WITH NO
SIGNIFICANT WEATHER AND/OR OBSTRUCTIONS TO VISIBILITY.

AZZ001>003-036-270200-
NORTHWEST ARIZONA

CITY           SKY/WX    TMP DP  RH WIND       PRES   REMARKS
BULLHEAD CITY  MOSUNNY   90  32  12 S9        29.80F
KINGMAN        MOSUNNY   77  23  13 MISG      29.91F
$$

AZZ004>008-015-016-018-270200-
NORTH CENTRAL ARIZONA

CITY           SKY/WX    TMP DP  RH WIND       PRES   REMARKS
GRAND CANYON   PTSUNNY   58  28  32 NW8G17    30.05F
PRESCOTT       MOSUNNY   68  25  19 W13       29.97S
FLAGSTAFF      PTSUNNY   56  28  34 SW6       30.05F
PAGE           MOSUNNY   71  31  22 NW9       29.90S
$$

AZZ009>014-017-270200-
NORTHEAST ARIZONA

CITY           SKY/WX    TMP DP  RH WIND       PRES   REMARKS
WINSLOW        MOSUNNY   68  27  21 W21       29.95R
SAINT JOHNS    CLOUDY    63  19  18 W25G31    29.94R
WINDOW ROCK    MOSUNNY   59  22  24 W12G20    29.97S
$$

AZZ023-270200-
GREATER PHOENIX AREA

CITY           SKY/WX    TMP DP  RH WIND       PRES   REMARKS
PHOENIX        SUNNY     83  29  14 SW7G16    29.80F
GLENDALE       MOSUNNY   86  30  13 S10G20    29.82F
LUKE AFB       SUNNY     85  31  14 SW14      29.79F
DEER VALLEY    SUNNY     82  30  15 SW14      29.81F
SCOTTSDALE     SUNNY     82  30  15 SW6G16    29.84F
MESA-GATEWAY   SUNNY     81  30  16 W14       29.85S
CHANDLER       SUNNY     82  28  14 W7        29.83F
$$

AZZ027-028-270200-
SOUTHWEST MARICOPA COUNTY AND PINAL COUNTY

CITY           SKY/WX    TMP DP  RH WIND       PRES   REMARKS
CASA GRANDE    SUNNY     82  28  14 W15G21    29.85F
GILA BEND      MOSUNNY   85  27  12 SW5       29.81F
$$

AZZ503-504-507>509-270200-
SOUTHEAST ARIZONA

CITY           SKY/WX    TMP DP  RH WIND       PRES   REMARKS
TUCSON         SUNNY     79  24  13 NW10      29.89S
DAVIS-MONTHAN  SUNNY     78  27  15 NW14G23   29.88S
RYAN FIELD     SUNNY     81  28  15 W18       29.88
NOGALES        SUNNY     76  21  12 W8G17     29.93S
SIERRA VISTA   SUNNY     73  17  12 W16G22    29.97R
DOUGLAS        SUNNY     77  12   8 SW15G24   29.91R
SAFFORD        SUNNY     78  21  12 NW21G30   29.84S
$$

AZZ020-021-025-026-031-270200-
SOUTHWEST ARIZONA

CITY           SKY/WX    TMP DP  RH WIND       PRES   REMARKS
YUMA           MOSUNNY   87  33  14 W10       29.80F
$$

CAZ031-033-041-043-047-048-061-270200-
SOUTHERN CALIFORNIA

CITY           SKY/WX    TMP DP  RH WIND       PRES   REMARKS
DOWNTOWN L.A.  SUNNY     68  53  58 VRB5      29.96F
L.A. AIRPORT   MOSUNNY   63  55  75 W15       29.97F
SAN DIEGO      PTSUNNY   67  53  61 W9        30.00F
BURBANK        SUNNY     68  51  54 S10       29.95F
ONTARIO        MOSUNNY   72  51  47 W14       29.94F
RIVERSIDE      SUNNY     73  50  44 W15G22    29.94S
PALM SPRINGS     N/A    N/A N/A N/A MISG        N/A
EL CENTRO NAS  MOSUNNY   89  36  15 SE6       29.80F
IMPERIAL       SUNNY     90  38  16 VRB3      29.78F
BLYTHE         SUNNY     89  35  14 E7        29.78F
NEEDLES        MOSUNNY   89  29  11 E5        29.79F
$$

NVZ020-UTZ003-270200-
SOUTHERN NEVADA-UTAH

CITY           SKY/WX    TMP DP  RH WIND       PRES   REMARKS
LAS VEGAS      MOSUNNY   82  32  16 VRB5      29.80F
SALT LAKE CITY MOSUNNY   69  36  29 W13       29.92S
$$

NMZ009-TXZ055-270200-
NEW MEXICO-WEST TEXAS

CITY           SKY/WX    TMP DP  RH WIND       PRES   REMARKS
ALBUQUERQUE    MOSUNNY   68  13  12 W18G30    29.87R
EL PASO        FAIR      82   9   6 W17G30    29.79S
$$


........................KEY........................
SKY/WX - SKY CONDITION/WEATHER
TMP    - TEMPERATURE IN FAHRENHEIT
DP     - DEW POINT IN FAHRENHEIT
RH     - RELATIVE HUMIDITY IN PERCENT
WIND   - DIRECTION AND SPEED IN MILES PER HOUR (MPH)
VRB    - VARIABLE WIND DIRECTION
PRES   - MEAN SEA LEVEL PRESSURE IN INCHES OF MERCURY
         F - FALLING PRESSURE   R - RISING PRESSURE
         S - STEADY PRESSURE
VSB    - VISIBILITY IN MILES
HX     - HEAT INDEX IN FAHRENHEIT
WCI    - WIND CHILL INDEX IN FAHRENHEIT
TC     - TEMPERATURE IN CELSIUS WHICH IS ALSO KNOWN AS
         TEMPERATURE IN CENTIGRADE
AFB    - AIR FORCE BASE
         LUKE AFB IS LUKE AIR FORCE BASE
         DAVIS-MONTHAN IS DAVIS-MONTHAN AIR FORCE BASE
NAS    - NAVAL AIR STATION
         EL CENTRO NAS IS EL CENTRO NAVAL AIR STATION
N/A    - NOT AVAILABLE





USA.gov is the U.S. government's official web portal to all federal, state and local government web resources and services.